Powrót do katalogu

STARLINK-2517

AktywnyŁącznośćVLEO
NORAD 48309·PAYLOAD·🇺🇸 United States

Wystrzelony Apr 29, 2021 z Cape Canaveral Space Force Station

Loading…

Następne Przeloty (najbliższe 24 godziny)

TLE

ŚwieżeSource: CelesTrak SupGP

Epoka: Sep 15, 2026, 01:55 UTC

1 48309C 21036AK  26258.08034722  .00015177  00000+0  48802-3 0  2588
2 48309  53.1582 287.5151 0001411  87.9242 318.2556 15.31696497    10

Śledź STARLINK-2517 w czasie rzeczywistym z AllMySat

Download on the App Store